Tracking 35280 objects as of 7-Sep-2026
HD Live streaming from Space Station
objects crossing your sky now

STARLINK-3726

Track STARLINK-3726 now!
10-day predictions
STARLINK-3726 is classified as:


NORAD ID: 52122
Int'l Code: 2022-029AL
Launch date: March 19, 2022
Source: United States (US)
Launch site: AIR FORCE EASTERN TEST RANGE (AFETR)
Your satellite tracking list
Your tracking list is empty




NASA's NSSDC Master Catalog

Two Line Element Set (TLE):
1 52122U 22029AL  26249.65355987 -.00000965  00000-0 -18023-4 0  9998
2 52122  53.1605 334.5672 0000183  31.0586 329.0427 15.33557602248276
Source of the keplerian elements: AFSPC